Погода в Боурале

Австралия     34°28′38″S   150°25′12″E
темп.,
°C
ветер,
м/с
пор.,
м/с
влажн.,
%
обл.,
%
осадки,
мм/ч
давл.,
гПа
погр.,
м
25 октября, пн
пн2523:00+7зсз118736 0.0 101915
02:00+5зсз11950 0.0 101720
05:00+4з11870 0.0 101723
08:00+9з25570 0.0 1017548
11:00+15зюз35270 0.0 10151653
14:00+18зюз34220 0.0 10142375
17:00+17зюз35290 0.0 10132020
20:00+6в11923 0.0 101831
26 октября, вт
вт2623:00+6з119226 0.0 102013
02:00+7зсз008741 0.0 101919
05:00+6с019013 0.0 102015
08:00+11с13680 0.0 1020592
11:00+18ссз12414 0.0 10181563
14:00+20з04325 0.0 10162207
17:00+18вюв23472 0.0 1015805
20:00+8в11983 0.0 102022
27 октября, ср
ср2723:00+7ссв119921 0.0 102116
02:00+9ссв159386 0.0 1020262
05:00+7с119963 0.0 102016
08:00+11ссз24856 0.0 1019317
11:00+21сз24300 0.0 10171289
14:00+24зюз35210 0.0 10141949
17:00+23зюз35305 0.0 10131284
20:00+13ссв2279100 0.0 101625
28 октября, чт
чт2823:00+12ссз2395100 0.0 101751
02:00+12сз119533 0.0 101525
05:00+12зсз227477 0.0 101432
08:00+18з244071 0.0 1014135
11:00+26з362249 0.0 10131214
14:00+29зюз45222 0.0 10102229
17:00+26з3733100 0.0 10111298
20:00+19зсз1151100 0.0 101212
29 октября, пт
пт2923:00+19ссз2549100 0.0 101296
02:00+19сз1139100 0.0 101022
05:00+19сз2738100 0.0 1010138
08:00+17с11173100 0.2 1009242
11:00+23с3943100 0.2 1007641
14:00+25зсз41046100 0.3 10061737
17:00+22ссз411740 2.3 10041130
20:00+14ссз26910 6.7 1006120